Location: Bear Valley
(38.6492°N, 122.5608°W)
Time: 14:55:12
(UTC+00:00)

Daily predictions for brighter satellites

Satellite Brightness Start Highest point End
(mag) Time Altitude Azimuth Time Altitude Azimuth Time Altitude Azimuth
Cosmos 2322 Rocket 3.8 12:08:33 30° ESE 12:08:45 30° ESE 12:13:39 10° NE
Cosmos 2263 Rocket 3.6 12:11:20 34° ENE 12:11:20 34° ENE 12:15:56 10° SE
ATLAS 3B R/B 3.7 12:20:53 33° NNE 12:22:44 39° NE 12:29:09 10° ESE
NOSS 3-2 (C) 4.0 12:29:59 67° NNW 12:31:12 81° NE 12:39:44 10° SE
CENTAUR R/B 3.3 12:36:48 43° NNW 12:39:57 75° NE 12:48:43 10° SE
NOSS 3-4 (A) 4.0 12:43:04 46° N 12:43:04 46° N 12:47:31 10° NNE
NOSS 3-4 (C) 4.0 12:43:08 46° N 12:43:08 46° N 12:47:37 10° NNE
NOSS 3-2 (A) 4.1 12:48:34 58° SW 12:48:34 58° SW 12:56:29 10° SSE
SL-16 R/B 2.1 12:52:52 79° NE 12:52:52 79° NE 12:58:13 10° NNE
Cosmos 2360 Rocket 3.7 12:47:29 10° SSE 12:52:34 35° ESE 12:57:40 10° NE
Timation 1 Rocket 4.3 12:53:59 70° N 12:54:43 85° ENE 13:00:44 10° SSE
Cosmos 1980 Rocket 4.3 13:03:06 13° N 13:03:06 13° N 13:03:46 10° N
Cosmos 2341 Rocket 3.9 12:52:50 10° N 12:59:07 88° E 13:05:19 10° S
Cosmos 1680 Rocket 4.5 13:01:58 36° N 13:01:58 36° N 13:05:09 10° NNE
Cosmos 2344 4.5 13:01:22 29° NNW 13:01:22 29° NNW 13:07:43 10° NNE
CZ-3 R/B 3.6 12:53:02 34° WSW 13:02:49 53° SSW 13:10:50 10° ESE
STARLINK 1043 4.3 13:05:25 51° ENE 13:05:25 51° ENE 13:08:39 10° NE
Gbstr 26 Del rocket 4.4 13:04:23 50° NW 13:05:01 51° NNW 13:12:38 10° NE
Orbus 7S? 4.2 13:07:26 48° NNE 13:07:54 51° NE 13:14:27 10° SE
STARLINK 1065 4.1 13:10:12 59° ENE 13:10:12 59° ENE 13:13:37 10° NE
Cosmos 1371 Rocket 4.4 13:07:14 24° N 13:10:27 62° ENE 13:15:44 10° SSE
Meteor 2-10 4.1 13:13:43 57° NW 13:13:43 57° NW 13:18:12 10° N
STARLINK 1063 3.8 13:14:57 67° NE 13:14:57 67° NE 13:18:35 10° NE
Meteor 1-16 Rocket 4.2 13:13:03 34° SSW 13:15:37 64° W 13:21:23 10° N
ATLAS 2AS CENTAUR R/B 3.4 13:15:28 39° WNW 13:16:11 40° NW 13:23:38 10° NNE
RESURS DK-1 2.7 13:17:20 57° NNE 13:17:20 57° NNE 13:20:42 10° NNE
Cosmos 2112 Rocket 4.3 13:20:01 47° NW 13:20:01 47° NW 13:24:23 10° N
STARLINK 1064 3.6 13:19:44 75° NNE 13:19:44 75° NNE 13:23:33 10° NE
Cosmos 2218 Rocket 4.1 13:13:45 10° N 13:20:09 78° E 13:26:25 10° S
Cosmos 1953 Rocket 3.7 13:21:09 57° SSW 13:21:09 57° SSW 13:24:43 10° S
SKYMED 2 3.7 13:17:44 10° SSE 13:22:02 72° ENE 13:25:06 19° N
Cosmos 1703 3.4 13:25:01 61° S 13:25:01 61° S 13:28:17 10° S
STARLINK 1041 3.5 13:24:32 77° NNW 13:24:32 77° NNW 13:28:33 10° NE
Lacrosse 5 2.5 13:26:04 37° NNW 13:26:04 37° NNW 13:30:24 10° NNE
Cosmos 1959 Rocket 4.4 13:20:23 10° N 13:26:33 85° E 13:32:45 10° S
METEOR-M 4.2 13:21:17 10° NNE 13:26:39 76° ESE 13:31:59 10° S
STARLINK 1038 3.5 13:29:17 71° NW 13:29:21 71° NW 13:33:29 10° NE
STARLINK 1046 3.5 13:34:05 62° WNW 13:34:21 64° NW 13:38:28 10° NE
STARLINK-60 3.0 13:35:59 71° S 13:35:59 71° S 13:39:05 10° SE
Cosmos 1624 Rocket 3.9 13:33:13 17° NNW 13:37:15 87° WSW 13:42:26 10° SSE
STARLINK 1039 3.6 13:38:52 54° WNW 13:39:20 59° NW 13:43:26 10° NE
STARLINK-29 3.7 13:41:31 41° NNW 13:42:24 55° NE 13:45:52 10° ESE
STARLINK 1045 3.7 13:43:39 47° WNW 13:44:19 53° NW 13:48:24 10° NE
STARLINK-52 3.8 13:44:14 36° NNW 13:45:16 52° NE 13:48:42 10° ESE
Cosmos 2366 rocket 3.9 13:39:26 10° NNW 13:45:47 70° W 13:52:04 10° S
PAYLOAD B 4.2 13:40:51 10° NNE 13:46:31 86° ESE 13:52:06 10° SSW
STARLINK 1050 3.9 13:48:34 40° WNW 13:49:24 47° NW 13:53:25 10° NE
Cosmos 1340 Rocket 4.1 13:46:11 10° SSE 13:49:51 41° E 13:53:33 10° NNE
Cosmos 2322 Rocket 2.7 13:50:29 27° WSW 13:52:39 36° WNW 13:57:52 10° N
Cosmos 2056 Rocket 3.5 13:48:37 12° NNW 13:53:35 64° WSW 13:58:53 10° S
Lacrosse 5 rocket 3.9 13:51:42 10° N 13:54:19 15° NNE 13:56:52 10° ENE
STARLINK 1055 4.0 13:53:22 35° WNW 13:54:24 43° NW 13:58:22 10° NE
Cosmos 2263 Rocket 2.9 13:53:06 28° WNW 13:54:37 32° WSW 13:59:34 10° SSW
BREEZE M DEB (TANK) 4.0 13:58:32 21° NNW 13:59:15 22° N 14:03:13 10° NE
STARLINK 1022 4.1 13:58:08 31° WNW 13:59:23 40° NW 14:03:18 10° NE
Cosmos 2058 Rocket 3.7 13:55:29 10° SW 13:59:23 31° WNW 14:03:16 10° NNW
Cosmos 1300 2.5 13:55:58 10° S 13:59:46 84° W 14:03:36 10° N
Okean O Rocket 1.5 13:59:18 10° N 14:03:45 81° WNW 14:08:09 10° SSW
STARLINK 1042 4.3 14:02:53 28° WNW 14:04:21 37° NNW 14:08:13 10° NE
Cosmos 1844 Rocket 3.2 13:59:46 10° NNW 14:05:22 63° ENE 14:10:58 10° SSE
ADEOS Rocket 3.4 14:00:44 10° SSE 14:06:06 60° ENE 14:11:48 10° N
Meteor 1-11 4.4 14:01:04 10° NNW 14:06:27 47° W 14:11:51 10° SSW
CZ-4B DEB 4.3 14:01:51 10° N 14:07:14 54° WNW 14:12:33 10° SSW
Cosmos 1437 2.8 14:05:01 10° N 14:08:02 72° E 14:11:03 10° SSE
STARLINK 1056 4.4 14:07:43 24° WNW 14:09:25 34° NNW 14:13:14 10° NE
ALOS 2.8 14:05:31 10° N 14:09:45 35° WNW 14:13:58 10° SW
COSMO-SKYMED 1 3.3 14:06:20 10° SSW 14:10:11 31° W 14:13:43 12° NW
H-2A R/B 3.5 14:08:17 10° NNE 14:12:08 57° E 14:15:53 10° S
ATLAS 3B R/B 3.1 14:08:11 15° NW 14:13:26 42° WSW 14:19:55 10° S
STARLINK 1054 4.5 14:12:27 22° WNW 14:14:21 32° NNW 14:18:07 10° NNE
Cosmos 2333 Rocket 2.7 14:12:31 10° S 14:18:13 66° ESE 14:23:56 10° NNE
Cosmos 2084 Rocket 3.4 14:15:24 10° SSW 14:19:45 88° WNW 14:24:11 10° NNE
Cosmos 2058 3.4 14:17:00 10° N 14:21:13 66° E 14:25:22 10° SSE
FENGYUN 3A 4.3 14:18:45 10° N 14:23:32 33° WNW 14:28:18 10° SW
USA 215 3.6 14:20:06 10° ESE 14:26:32 63° NE 14:32:58 10° NW
Envisat 4.3 14:24:57 10° NNE 14:29:50 46° E 14:34:41 10° S
CENTAUR R/B 4.1 14:24:03 12° WNW 14:30:13 27° WSW 14:37:06 10° SSW
Iridium 96 3.3 14:28:47 10° S 14:31:11 66° W 14:33:30 10° N
Cosmos 1452 Rocket 3.5 14:30:20 10° NNW 14:35:34 76° WSW 14:40:48 10° S
Cosmos 2360 Rocket 2.9 14:31:34 10° WSW 14:36:32 31° WNW 14:41:33 10° N
SL-16 R/B 3.8 14:34:50 11° WNW 14:37:24 14° NW 14:40:24 10° NNW
Helios 1A Rocket 3.3 14:33:42 10° N 14:37:38 42° WNW 14:41:33 10° SW
Cosmos 2219 Rocket 2.2 14:32:57 10° SSW 14:38:37 87° WNW 14:44:20 10° NNE
Cosmos 1892 3.0 14:36:11 10° N 14:39:59 69° E 14:43:44 10° SSE
Cosmos 2333 4.4 14:37:34 10° SW 14:43:12 55° WNW 14:48:54 10° NNE
Cosmos-2242 3.2 14:39:28 10° S 14:43:51 80° E 14:48:14 10° N
Cosmos 2322 4.0 14:38:57 10° SW 14:44:22 46° WNW 14:49:49 10° N
CZ-4 R/B 4.0 14:42:51 10° NE 14:46:27 27° E 14:50:00 10° SSE
Cosmos 1408 3.8 14:48:05 10° N 14:51:41 46° E 14:55:13 10° SSE
Cosmos 1825 4.1 14:48:46 10° NNE 14:52:11 32° ENE 14:55:35 10° SE
Cosmos 1821 Rocket 4.1 14:46:19 10° NNW 14:52:14 52° W 14:58:04 10° SSW
CZ-4B R/B 3.8 14:47:38 10° N 14:52:29 33° WNW 14:57:14 10° SW
Feng Yun 1-1 Rocket 4.4 14:46:37 10° NNE 14:52:33 86° WNW 14:58:18 10° SSW
Nadezhda 3 Rocket 4.4 14:48:20 10° SW 14:54:03 40° WNW 14:59:51 10° N
CORIOLIS 4.2 14:49:58 10° N 14:55:21 81° WNW 15:00:43 10° SSW
Cosmos 1844 3.8 14:51:35 10° NNW 14:57:04 60° WSW 15:02:31 10° S
